Starlink 2077

decayed
NORAD ID: 47363 Int'l Des: 2021-005 Owner: SPXS Country: US Constellation: starlink
LEOCIRCULAR
Gruppe

Über Starlink 2077

Beschreibung wird geladen...

Höhenverlauf

Altitude vs Time

uPlot chart will show altitude changes over time

Zweizeiliger Elementsatz

1 47363U 21005Q 25009.74552870 .07924267 12225-4 13966-2 0 9995
2 47363 53.0279 133.6210 0007388 326.1438 145.4970 16.31901158219568
Epoch: 9. Jan. 2025 • Age: 7159 hours

Aktueller Status

Position data unavailable
Startdatum 20. Jan. 2021
Alter 4.7 years
Verglühungsdatum 10. Jan. 2025
Typ internet

Technische Details

Klassifizierung Payload
Masse 260.00 kg
Trockenmasse 248.00 kg
Gesamtmasse 260.00 kg
Länge 0.20 m
Durchmesser 2.80 m
Spannweite 9.00 m
Form Box + pan
Hersteller SPXS
Bus-Typ Starlink
Phasenstatus Unknown Transfer Status
Besitzer/Staat SPXS/US

Große Konstellationen

Loading constellations...